Time,TemperatureF,DewpointF,PressureIn,WindDirection,WindDirectionDegrees,WindSpeedMPH,WindSpeedGustMPH,Humidity,HourlyPrecipIn,Conditions,Clouds,dailyrainin,SoftwareType,DateUTC
2013-01-02 00:00:00,38.0,35.0,29.79,South,170,34.0,48.0,89,-99.99,,,-99.99,,2013-01-02 09:00:00,
2013-01-02 00:42:00,38.0,35.0,29.79,South,170,34.0,48.0,89,-99.99,,,-99.99,,2013-01-02 09:42:00,
2013-01-02 00:52:00,38.0,35.0,29.79,South,170,34.0,48.0,89,-99.99,,,-99.99,,2013-01-02 09:52:00,
2013-01-02 01:00:00,38.0,35.0,29.80,South,170,32.0,47.0,89,-99.99,,,-99.99,,2013-01-02 10:00:00,
2013-01-02 01:42:00,38.0,35.0,29.80,South,170,32.0,47.0,89,-99.99,,,-99.99,,2013-01-02 10:42:00,
2013-01-02 01:52:00,38.0,35.0,29.80,South,170,32.0,47.0,89,-99.99,,,-99.99,,2013-01-02 10:52:00,
2013-01-02 02:00:00,37.0,35.0,29.79,South,170,33.0,45.0,92,-99.99,,,-99.99,,2013-01-02 11:00:00,
2013-01-02 02:42:00,37.0,35.0,29.79,South,170,33.0,45.0,92,-99.99,,,-99.99,,2013-01-02 11:42:00,
2013-01-02 02:52:00,37.0,35.0,29.79,South,170,33.0,45.0,92,-99.99,,,-99.99,,2013-01-02 11:52:00,
2013-01-02 03:00:00,37.0,35.0,29.80,South,170,32.0,43.0,92,-99.99,,,-99.99,,2013-01-02 12:00:00,
2013-01-02 03:42:00,37.0,35.0,29.80,South,170,32.0,43.0,92,-99.99,,,-99.99,,2013-01-02 12:42:00,
2013-01-02 03:52:00,37.0,35.0,29.80,South,170,32.0,43.0,92,-99.99,,,-99.99,,2013-01-02 12:52:00,
2013-01-02 04:00:00,37.0,36.0,29.79,South,180,32.0,40.0,95,-99.99,,,-99.99,,2013-01-02 13:00:00,
2013-01-02 04:52:00,37.0,36.0,29.79,South,180,32.0,40.0,95,-99.99,,,-99.99,,2013-01-02 13:52:00,
2013-01-02 05:00:00,37.0,36.0,29.78,South,170,29.0,37.0,95,-99.99,,,-99.99,,2013-01-02 14:00:00,
2013-01-02 05:42:00,37.0,36.0,29.78,South,170,29.0,37.0,95,-99.99,,,-99.99,,2013-01-02 14:42:00,
2013-01-02 05:53:00,37.0,36.0,29.78,South,170,29.0,37.0,95,-99.99,,,-99.99,,2013-01-02 14:53:00,
2013-01-02 06:00:00,37.0,36.0,29.78,SSE,160,26.0,36.0,95,-99.99,,,-99.99,,2013-01-02 15:00:00,
2013-01-02 06:42:00,37.0,36.0,29.78,SSE,160,26.0,36.0,95,-99.99,,,-99.99,,2013-01-02 15:42:00,
2013-01-02 06:52:00,37.0,36.0,29.78,SSE,160,26.0,36.0,95,-99.99,,,-99.99,,2013-01-02 15:52:00,
2013-01-02 07:00:00,37.0,36.0,29.76,South,170,28.0,36.0,95,-99.99,,,-99.99,,2013-01-02 16:00:00,
2013-01-02 07:42:00,37.0,36.0,29.76,South,170,28.0,36.0,95,-99.99,,,-99.99,,2013-01-02 16:42:00,
2013-01-02 07:52:00,37.0,36.0,29.76,South,170,28.0,36.0,95,-99.99,,,-99.99,,2013-01-02 16:52:00,
2013-01-02 08:00:00,37.0,35.0,29.78,South,180,29.0,39.0,92,-99.99,,,-99.99,,2013-01-02 17:00:00,
2013-01-02 08:42:00,37.0,35.0,29.78,South,180,29.0,39.0,92,-99.99,,,-99.99,,2013-01-02 17:42:00,
2013-01-02 08:53:00,37.0,35.0,29.78,South,180,29.0,39.0,92,-99.99,,,-99.99,,2013-01-02 17:53:00,
2013-01-02 09:00:00,37.0,35.0,29.78,SSE,160,22.0,33.0,92,-99.99,,,-99.99,,2013-01-02 18:00:00,
2013-01-02 09:42:00,37.0,35.0,29.78,SSE,160,22.0,33.0,92,-99.99,,,-99.99,,2013-01-02 18:42:00,
2013-01-02 09:52:00,37.0,35.0,29.78,SSE,160,22.0,33.0,92,-99.99,,,-99.99,,2013-01-02 18:52:00,
2013-01-02 10:00:00,37.0,35.0,29.80,South,170,22.0,31.0,92,-99.99,,,-99.99,,2013-01-02 19:00:00,
2013-01-02 10:42:00,37.0,35.0,29.80,South,170,22.0,31.0,92,-99.99,,,-99.99,,2013-01-02 19:42:00,
2013-01-02 10:52:00,37.0,35.0,29.80,South,170,22.0,31.0,92,-99.99,,,-99.99,,2013-01-02 19:52:00,
2013-01-02 11:00:00,37.0,35.0,29.81,South,170,18.0,29.0,92,-99.99,,,-99.99,,2013-01-02 20:00:00,
2013-01-02 11:42:00,37.0,35.0,29.81,South,170,18.0,29.0,92,-99.99,,,-99.99,,2013-01-02 20:42:00,
2013-01-02 11:52:00,37.0,35.0,29.81,South,170,18.0,29.0,92,-99.99,,,-99.99,,2013-01-02 20:52:00,
2013-01-02 12:00:00,37.0,35.0,29.81,SSE,160,13.0,26.0,92,-99.99,,,-99.99,,2013-01-02 21:00:00,
2013-01-02 12:42:00,37.0,35.0,29.81,SSE,160,13.0,26.0,92,-99.99,,,-99.99,,2013-01-02 21:42:00,
2013-01-02 12:52:00,37.0,35.0,29.81,SSE,160,13.0,26.0,92,-99.99,,,-99.99,,2013-01-02 21:52:00,
2013-01-02 13:00:00,38.0,34.0,29.82,SSE,150,15.0,24.0,85,-99.99,,,-99.99,,2013-01-02 22:00:00,
2013-01-02 13:42:00,38.0,34.0,29.82,SSE,150,15.0,24.0,85,-99.99,,,-99.99,,2013-01-02 22:42:00,
2013-01-02 13:52:00,38.0,34.0,29.82,SSE,150,15.0,24.0,85,-99.99,,,-99.99,,2013-01-02 22:52:00,
2013-01-02 15:00:00,37.0,34.0,29.83,SSE,160,15.0,20.0,88,-99.99,,,-99.99,,2013-01-03 00:00:00,
2013-01-02 15:42:00,37.0,34.0,29.83,SSE,160,15.0,20.0,88,-99.99,,,-99.99,,2013-01-03 00:42:00,
2013-01-02 15:52:00,37.0,34.0,29.83,SSE,160,15.0,20.0,88,-99.99,,,-99.99,,2013-01-03 00:52:00,
2013-01-02 16:00:00,37.0,34.0,29.85,SSE,160,11.0,21.0,88,-99.99,,,-99.99,,2013-01-03 01:00:00,
2013-01-02 16:42:00,37.0,34.0,29.85,SSE,160,11.0,21.0,88,-99.99,,,-99.99,,2013-01-03 01:42:00,
2013-01-02 16:52:00,37.0,34.0,29.85,SSE,160,11.0,21.0,88,-99.99,,,-99.99,,2013-01-03 01:52:00,
2013-01-02 17:00:00,38.0,34.0,29.86,SE,130,3.0,-999.0,85,-99.99,,,-99.99,,2013-01-03 02:00:00,
2013-01-02 18:00:00,38.0,34.0,29.87,South,190,13.0,14.0,85,-99.99,,,-99.99,,2013-01-03 03:00:00,
2013-01-02 18:52:00,38.0,34.0,29.87,South,190,13.0,14.0,85,-99.99,,,-99.99,,2013-01-03 03:52:00,
2013-01-02 19:42:00,38.0,34.0,29.89,SSW,200,11.0,16.0,85,-99.99,,,-99.99,,2013-01-03 04:42:00,
2013-01-02 19:52:00,38.0,34.0,29.89,SSW,200,11.0,16.0,85,-99.99,,,-99.99,,2013-01-03 04:52:00,
2013-01-02 20:42:00,36.0,34.0,29.91,NW,320,3.0,14.0,92,-99.99,,,-99.99,,2013-01-03 05:42:00,
2013-01-02 21:42:00,35.0,34.0,29.93,NNW,340,7.0,13.0,95,-99.99,,,-99.99,,2013-01-03 06:42:00,
2013-01-02 22:42:00,35.0,33.0,29.95,NNW,340,2.0,-999.0,92,-99.99,,,-99.99,,2013-01-03 07:42:00,
2013-01-02 23:42:00,35.0,34.0,29.97,West,270,5.0,7.0,95,-99.99,,,-99.99,,2013-01-03 08:42:00,